Regional Weather Roundup
Issued by NWS Austin/San Antonio, TX

Home | Current Version | Previous Version | Text Only | Print | Product List | Glossary On
Versions: 1 2 3 4 5 6 7 8 9 10 11 12 13 14 15 16 17 18 19 20 21 22 23 24 25 26 27 28 29 30 31 32 33 34 35 36 37 38 39 40 41 42 43 44 45 46 47 48 49 50
000
ASUS44 KEWX 231910
RWREWX
SOUTH TEXAS REGIONAL WEATHER ROUNDUP
NATIONAL WEATHER SERVICE AUSTIN/SAN ANTONIO TX
200 PM CDT THU MAY 23 2019

NOTE: "FAIR" INDICATED FEW OR NO CLOUDS BELOW 12,000 FEET WITH NO
SIGNIFICANT WEATHER AND/OR OBSTRUCTIONS TO VISIBILITY.

* - THESE STATIONS ARE NOT NWS OR FAA STATIONS...AND ARE NOT SUBJECT
    TO NWS AND FAA QUALITY CONTROL.

TXZ171-172-183>190-232000-
TEXAS HILL COUNTRY AND EDWARDS PLATEAU

CITY           SKY/WX    TMP DP  RH WIND       PRES   REMARKS
JUNCTION       MOSUNNY   88  67  49 S18G28    29.92F HX  91
*LLANO         MOSUNNY   90  68  48 SE13G26   29.95F HX  93
BURNET         PTSUNNY   87  67  51 S15G29    29.97F HX  90
*HORSESHOE BAY MOSUNNY   90  66  45 S17G26    29.95F HX  92
*KERRVILLE     PTSUNNY   86  69  55 SE22G28   29.94F HX  90
*FREDERICKSBRG MOSUNNY   85  66  53 SE15      29.94F
*ROCKSPRINGS   PTSUNNY   82  68  61 SE16G26   29.99S
*BOERNE STAGE  PTSUNNY   84  68  58 SE16G25   29.95F
*CASTROVILLE   PTSUNNY   89  66  46 SE18G25   29.91F HX  92
HONDO          PTSUNNY   90  70  51 SE20G28   29.90F HX  95
*UVALDE        MOSUNNY   87  69  55 SE16G23   29.89F HX  92
DEL RIO        CLOUDY    86  71  60 SE15G28   29.84F HX  91
LAUGHLIN AFB   CLOUDY    87  71  58 SE17      29.86F HX  92
CARRIZO SPRGS  PTSUNNY   91  70  49 S16G24    29.83F HX  97
*FAITH RANCH   PTSUNNY   91  72  52 SE15      29.84F HX  98
$$

TXZ173-191>194-202-209-217>225-228-232000-
CENTRAL AND SOUTH CENTRAL TEXAS

CITY           SKY/WX    TMP DP  RH WIND       PRES   REMARKS
GEORGETOWN     PTSUNNY   88  70  55 S14G24    29.97F HX  93
AUSTIN/BERGSTM PTSUNNY   91  71  51 SE18G28   29.93F HX  97
AUSTIN/MABRY   MOSUNNY   90  70  51 SE13G24   29.95F HX  95
*AUSTIN/EXEC   MOSUNNY   90  72  55 S17       29.96F HX  96
*LAGO VISTA    MOSUNNY   86  71  59 SE16G24   29.97F HX  91
SAN MARCOS     PTSUNNY   92  72  51 S21       29.94F HX  99
NEW BRAUNFELS  SUNNY     93  70  46 S22G29    29.92F HX  99
RANDOLPH AFB   MOSUNNY   90  73  56 SE20G28   29.92F HX  97
PT SAN ANTONIO PTSUNNY   90  71  52 SE21G30   29.89F HX  96
SAN ANTONIO    MOSUNNY   91  69  48 S23G30    29.92F HX  96
STINSON FIELD  MOSUNNY   93  67  42 SE23G31   29.88F HX  96
*LA GRANGE     PTSUNNY   90  75  61 S12G17    29.94F HX 101
*GIDDINGS      MOSUNNY   91  74  56 SE14G22   29.98F HX 100
*GONZALES      MOSUNNY   92  75  56 SE15G21   29.94F HX 103
$$

TXZ163>164-176>182-195>201-210>213-226-227-235-232000-
SOUTHEAST TEXAS

CITY           SKY/WX    TMP DP  RH WIND       PRES   REMARKS
COLLEGE STN    MOSUNNY   91  72  53 SE18      29.98F HX  98
*BRYAN         PTSUNNY   87  72  60 SE15G24   30.00F HX  93
*CALDWELL      MOSUNNY   90  73  57 S21G28    29.98F HX  98
*CROCKETT        N/A     86  72  62 S13G22    30.05F HX  92
*BRENHAM       MOSUNNY   90  73  57 S16G22    29.99F HX  98
HUNTSVILLE     PTSUNNY   89  71  55 SE8G17    30.02F HX  95
CONROE         PTSUNNY   87  74  64 SE16      30.03F HX  95
HOUSTON BUSH   PTSUNNY   87  78  74 SE20G28   30.02F HX 100
HOUSTON HOBBY  CLOUDY    85  74  69 SE12G21   30.02F HX  92
*HOUSTON SW AP CLOUDY    83  76  80 SE9       30.03F HX  92
PEARLAND       CLOUDY    85  75  72 SE16G22   30.04S HX  93
HOUSTON HOOKS  PTSUNNY   87  73  62 SE13G22   30.01F HX  94
ELLINGTON FLD  CLOUDY    82  73  74 SE14      30.03F
SUGAR LAND     PTSUNNY   86  77  74 SE15      30.01F HX  97
*HOUSTON EXEC  PTSUNNY   88  75  66 SE14      30.01F HX  97
*CLEVELAND MUN PTSUNNY   86  76  71 S8G21     30.05F HX  96
*WHARTON       CLOUDY    84  73  67 SE15      30.00F HX  90
*COLUMBUS      CLOUDY    88  73  59 SE12G22   29.99F HX  96
*EAGLE LAKE    MOCLDY    87  76  68 S15G23    29.98  HX  97
$$

TXZ214>216-236>238-232000-
THE UPPER TEXAS COAST

CITY           SKY/WX    TMP DP  RH WIND       PRES   REMARKS
*ORANGE        FAIR      86  77  74 S15G21    30.09F HX  98
PORT ARTHUR    PTSUNNY   88  74  63 SE21G26   30.06S HX  96
GALVESTON      CLOUDY    84  77  79 SE17      30.04S HX  94
ANGLETON       CLOUDY    83  75  77 SE15      30.01F HX  90
*BAY CITY      CLOUDY    85  76  75 SE16G22   30.00F HX  95
PALACIOS       CLOUDY    83  79  88 SE18      29.98F HX  94
$$

TXZ229>234-239>247-232000-
TEXAS COASTAL BEND AND RIO GRANDE PLAINS

CITY           SKY/WX    TMP DP  RH WIND       PRES   REMARKS
VICTORIA       CLOUDY    89  77  67 SE17G26   29.95F HX 101
*BEEVILLE      MOSUNNY   92  73  55 SE21G31   29.91F HX 100
ROCKPORT       CLOUDY    85  78  80 SE17G26   29.93F HAZE    HX  96
*PORT ARANSAS  CLOUDY    85  79  81 SE14      29.94F HAZE    HX  98
*PORT LAVACA   CLOUDY    86  78  76 SE17G24   29.97S HX  98
*INGLESIDE     CLOUDY    87  79  76 SE20G25   29.92F HX 101
CORPUS CHRISTI PTSUNNY   91  77  63 SE26      29.90F HX 104
CORPUS NAS     CLOUDY    89  78  70 SE22      29.91F HX 103
*ROBSTOWN      MOSUNNY   90  76  64 SE23G30   29.90F HX 101
ALICE          MOSUNNY   93  75  55 SE22G28   29.87F HX 104
KINGSVILLE NAS MOSUNNY   91  76  61 SE24G31   29.88F HX 103
COTULLA        MOSUNNY   96  67  38 S14G25    29.85F HX 100
LAREDO         PTSUNNY   96  71  44 S24G30    29.82F HX 103
$$

TXZ248>255-232000-
DEEP SOUTH TEXAS

CITY           SKY/WX    TMP DP  RH WIND       PRES   REMARKS
BROWNSVILLE    PTSUNNY   92  79  65 SE24G31   29.87  HX 108
PORT ISABEL    CLOUDY    89  77  67 SE24G33   29.87F HX 101
HARLINGEN      MOSUNNY   96  75  50 SE25G31   29.85F HX 108
*HEBBRONVILLE  MOSUNNY   92  68  45 S18G25    29.86F HX  96
MCALLEN        MOSUNNY   95  73  48 SE21G33   29.84F HX 104
*WESLACO       PTCLDY    95  73  47 S18G25    29.84  HX 104
FALFURRIAS     MOSUNNY   96  68  40 SE16      29.84F HX 101
EDINBURG       PTSUNNY   96  68  39 SE20      29.85F HX 101
*ZAPATA        FAIR      96  66  36 SE15G26   29.83F HX 100
$$

TXZ213>215-236>238-242>244-246-247-251-254-255-232000-
CMAN STATIONS

STATION/POSITION TIME  TEMP    WIND        PRES    WAVE
                       AIR SEA DIR/SP/G            HT/PER
                 (UTC) (F)     (DEG/KT/KT) (MB)    (FT/S)
SABINE PASS      1836   81 82  140/ 17/ 21 1019.9
NORTH JETTY/GLS  1836   85 81  140/ 19/ 21 1016.3
EAGLE POINT      1836   81 80  150/ 15/ 19 1016.6
MORGANS POINT    1836   81 81  120/ 14/ 17 1017.3
PORT O`CONNOR    1836   81 81  130/ 15/ 21 1014.5
PORT ARANSAS     1900   81 81  120/ 18/ 20 1013.3
MALAQUITE BEACH  1836   83 82  100/ 17/ 19 1012.8
BAFFIN BAY       1842   83 87  110/ 17/ 20 1013.0
PORT ISABEL      1842   84 81  140/ 15/ 20 1012.4
$$



USA.gov is the U.S. government's official web portal to all federal, state and local government web resources and services.